Regional Weather Roundup
Issued by NWS

Home | Current Version | Previous Version | Graphics & Text | Print | Product List | Glossary On
Versions: 1 2 3 4 5 6 7 8 9 10 11 12 13 14 15 16 17 18 19 20 21 22 23 24 25 26 27 28 29 30 31 32 33 34 35 36 37 38 39 40 41 42 43 44 45 46 47 48 49 50
000
ASUS43 KIND 221609
RWRIN

WEATHER ROUNDUP FOR INDIANA
NATIONAL WEATHER SERVICE INDIANAPOLIS IN
1100 AM EST SAT NOV 22 2014

NOTE: "FAIR" INDICATES FEW OR NO CLOUDS BELOW 12,000 FEET WITH NO
SIGNIFICANT WEATHER AND/OR OBSTRUCTIONS TO VISIBILITY.

* - STATION DOES NOT REPORT WEATHER SUCH AS PRECIPITATION OR FOG.

+ - STATION NOT QUALITY CONTROLLED BY THE NATIONAL WEATHER SERVICE.
    USE DATA WITH CAUTION...ESPECIALLY DEWPOINT AND RELATIVE
    HUMIDITY OBSERVATIONS.

INZ001>003-010>013-019-020-221700-
NORTHWEST INDIANA

CITY           SKY/WX    TMP DP  RH WIND       PRES   REMARKS
GARY /AIRPORT/ CLOUDY    41  36  81 SW10      30.04F
KNOX *+        CLOUDY    40  37  89 S9        30.05F
LA PORTE +     CLOUDY    39  39 100 S7        30.05F FOG
MICHIGAN CITY+ CLOUDY    39  34  81 S12       30.04F
MONTICELLO +   CLOUDY    43  39  85 S8        30.07F
RENSSELAER +   DRIZZLE   43  43 100 S14       30.06F
VALPARAISO     CLOUDY    41  37  86 S10       30.05F

$$

LMZ046-743>745-221700-
SOUTHERN LAKE MICHIGAN

STATION/POSITION TIME  TEMP WIND        PRES
                       AIR  DIR/SP/G
                 (UTC) (F)  (DEG/KT/KT) (MB)
MICHIGAN CITY    1600   40  170/ 14/ 18   N/A

$$

INZ004-005-014>016-021>024-221700-
NORTH CENTRAL INDIANA

CITY           SKY/WX    TMP DP  RH WIND       PRES   REMARKS
ELKHART        CLOUDY    39  36  87 SW7       30.05F
GOSHEN         CLOUDY    42  38  85 SW15      30.06F
LOGANSPORT +   CLOUDY    41  37  87 S12       30.10F
PERU/GRISSOM   CLOUDY    44  44 100 SW14      30.09F
ROCHESTER +    CLOUDY    45  39  81 S10G16    30.08F
SOUTH BEND     CLOUDY    39  36  89 SW14      30.05F
WARSAW +       LGT RAIN  41  39  93 SW6       30.07F

$$

INZ006>009-017-018-025>027-221700-
NORTHEAST INDIANA

CITY           SKY/WX    TMP DP  RH WIND       PRES   REMARKS
ANGOLA *+      CLOUDY    39  37  93 SW14      30.06F
AUBURN +       DRIZZLE   43  36  75 SW10G18   30.09F
FORT WAYNE     CLOUDY    42  38  85 SW15      30.11F
HUNTINGTON +   CLOUDY    42  38  84 SW12G18   30.10F

$$

INZ028-029-035-036-043>045-051>053-221700-
WEST CENTRAL INDIANA

CITY           SKY/WX    TMP DP  RH WIND       PRES   REMARKS
GREENCASTLE +  CLOUDY    50  39  66 S10G20    30.15S HAZE
LAFAYETTE      CLOUDY    48  41  76 SW12G20   30.10F
TERRE HAUTE    CLOUDY    49  40  71 S13       30.15F

$$

INZ030>032-037>040-046>048-054>057-064-065-221700-
CENTRAL INDIANA

CITY           SKY/WX    TMP DP  RH WIND       PRES   REMARKS
ANDERSON       LGT RAIN  45  36  70 S16G22    30.17F
CP ATTERBURY + PTSUNNY   50  41  71 S12       30.19F
COLUMBUS       PTSUNNY   45  39  81 S12       30.21F
FRANKFORT +    MOSUNNY   47  42  83 S14       30.12F
INDIANAPOLIS   CLOUDY    51  40  65 S16       30.14F
-EAGLE CREEK   CLOUDY    51  40  65 S9        30.14F
KOKOMO *+      CLOUDY    43  37  81 S15       30.11F
MARION +       LGT RAIN  40  35  83 S17       30.13F
MT COMFORT *+  SUNNY     45  32  61 S10G18    30.17F
SHELBYVILLE    PTSUNNY   45  37  73 S13       30.18F
ZIONSVILLE +   CLOUDY    44  38  79 S7        30.14F

$$

INZ033-034-041-042-049-050-058-059-221700-
EAST CENTRAL INDIANA

CITY           SKY/WX    TMP DP  RH WIND       PRES   REMARKS
MUNCIE         CLOUDY    48  38  68 SW15G21   30.14F

$$

INZ060-061-067>069-081>083-085>088-221700-
SOUTHWEST INDIANA

CITY           SKY/WX    TMP DP  RH WIND       PRES   REMARKS
EVANSVILLE     PTSUNNY   58  40  51 S17G26    30.22F
HUNTINGBURG *+ PTSUNNY   54  39  58 S15G21    30.23F
WASHINGTON +   CLOUDY    54  42  65 S17G25    30.19F

$$

INZ062-063-066-070>080-084-089>092-221700-
SOUTH CENTRAL AND SOUTHEAST INDIANA

CITY           SKY/WX    TMP DP  RH WIND       PRES   REMARKS
BLOOMINGTON    CLOUDY    54  41  61 SW18G25   30.18F

$$



USA.gov is the U.S. government's official web portal to all federal, state and local government web resources and services.